Regional Weather Roundup
Issued by NWS

Home | Current Version | Previous Version | Text Only | Print | Product List | Glossary Off
Versions: 1 2 3 4 5 6 7 8 9 10 11 12 13 14 15 16 17 18 19 20 21 22 23 24 25 26 27 28 29 30 31 32 33 34 35 36 37 38 39 40 41 42 43 44 45 46 47 48 49 50

000
ASUS43 KMKX 010321
RWRWI

WISCONSIN REGIONAL WEATHER ROUNDUP
NATIONAL WEATHER SERVICE MILWAUKEE/SULLIVAN WI
1000 PM CDT SUN AUG 31 2014

NOTE: "FAIR" INDICATES FEW OR NO CLOUDS BELOW 12,000 FEET WITH NO
SIGNIFICANT WEATHER AND/OR OBSTRUCTIONS TO VISIBILITY.

WIZ001-002-006>008-014>016-023>028-010400-
NORTHWEST WISCONSIN

CITY           SKY/WX    TMP DP  RH WIND       PRES   REMARKS
SUPERIOR ARPT  CLOUDY    61  61  98 NE5       29.61S
ASHLAND        TSTM      68  64  87 VRB6      29.65S
HAYWARD        LGT RAIN  66  66 100 CALM      29.70R FOG
SIREN          CLOUDY    70  65  85 S7        29.65R
RICE LAKE      CLOUDY    69  66  89 S9        29.70R
LADYSMITH      CLOUDY    74  68  79 S12       29.72R
EAU CLAIRE     CLOUDY    75  67  76 SW8       29.70R
MENOMONIE      RAIN      75  63  66 SW5       29.69R
NEW RICHMOND   LGT RAIN  71  65  82 SW7       29.68S
OSCEOLA        LGT RAIN  74  70  88 S13       29.69R
$$

WIZ003>005-009-010-017-018-010400-
NORTH CENTRAL WISCONSIN

CITY           SKY/WX    TMP DP  RH WIND       PRES   REMARKS
WOODRUFF       CLOUDY    72  68  86 S8        29.75R
RHINELANDER    MOCLDY    68  65  90 SE10G16   29.78S
EAGLE RIVER    CLOUDY    66  66 100 SE7       29.76S
LAND O LAKES   MOCLDY    67  64  90 S6        29.77S
PHILLIPS       CLOUDY    72  67  83 S15       29.71S
TOMAHAWK       PTCLDY    69  65  87 S6        29.76S
MEDFORD        CLOUDY    71  65  80 S15       29.76R
MERRILL        MOCLDY    70  67  89 S8        29.76S
$$

WIZ029-030-035-036-043>047-010400-
CENTRAL WISCONSIN

CITY           SKY/WX    TMP DP  RH WIND       PRES   REMARKS
WAUSAU         CLOUDY    72  67  84 SE8       29.76R
MOSINEE        CLOUDY    72  68  88 SE8       29.78S
MARSHFIELD     CLOUDY    74  67  78 S8        29.76R
STEVENS POINT  MOCLDY    71  66  84 SE6       29.78R
WAUPACA        MOCLDY    72  70  93 SE7       29.78S
WAUTOMA        CLOUDY    71  67  87 CALM      29.78S
WISC RAPIDS    CLOUDY    74  67  78 S7        29.77S
CAMP DOUGLAS   MOCLDY    74  71  88 SE6       29.76S
$$

WIZ011>013-019>022-031-037>040-048>050-010400-
NORTHEAST WISCONSIN

CITY           SKY/WX    TMP DP  RH WIND       PRES   REMARKS
ANTIGO         CLOUDY    66  66  99 S10       29.81R FOG
STURGEON BAY   CLOUDY    64  63  94 S9        29.82F
GREEN BAY      CLEAR     67  65  93 SE7       29.79F
MANITOWOC      LGT RAIN  66  65  96 S8        29.82F VSB 1/2
APPLETON       PTCLDY    70  68  94 SE10      29.79F
CLINTONVILLE   PTCLDY    66  64  94 SE5       29.78F FOG
OSHKOSH        CLEAR     69  67  93 SE7       29.79F
$$

WIZ032>034-041-042-053>061-010400-
SOUTHWEST WISCONSIN

CITY           SKY/WX    TMP DP  RH WIND       PRES   REMARKS
LA CROSSE      CLOUDY    70  66  87 SE6       29.71S
SPARTA         CLOUDY    72  65  78 CALM      29.74F
VIROQUA        FAIR      74  67  76 S9        29.76F
BOSCOBEL       MOCLDY    79  67  66 S10G17    29.75S HX  81
PRAIRIE DU CHI CLOUDY    79  67  66 SE10G16   29.74S HX  81
PLATTEVILLE    FAIR      73  69  88 CALM      29.81S
$$

WIZ056-057-062-063-064-067-068-010400-
SOUTH CENTRAL WISCONSIN

CITY           SKY/WX    TMP DP  RH WIND       PRES   REMARKS
BARABOO/DELLS  PTCLDY    75  65  73 S7        29.78S
LONE ROCK      PTCLDY    81  68  64 S12       29.78S HX  84
WATERTOWN      PTCLDY    72  69  91 SE6       29.82S
MADISON        CLEAR     77  68  73 S13       29.81R
MIDDLETON      FAIR      77  68  73 S12       29.81F
MONROE         CLEAR     72  70  94 S13       29.83S
JANESVILLE     CLEAR     75  68  78 S7        29.83R
$$

WIZ051-052-058>065-066-070>072-010400-
SOUTHEAST WISCONSIN

CITY           SKY/WX    TMP DP  RH WIND       PRES   REMARKS
MILWAUKEE      PTCLDY    75  66  73 S8        29.84F
WAUKESHA       CLEAR     72  64  78 S7        29.85R
MILWAUKEE/TIMM CLEAR     72  63  73 S5        29.84R
RACINE         CLEAR     72  67  84 S5        29.86F
BURLINGTON     CLEAR     68  64  88 SW3       29.86R
KENOSHA        CLEAR     74  66  76 S7        29.85F
FOND DU LAC    CLEAR     70  66  87 S9        29.81S
SHEBOYGAN      FOG       68  67  96 S7        29.82F VSB 1/2
WEST BEND      CLEAR     66  64  94 CALM      29.83S FOG
JUNEAU         PTCLDY    72  66  83 SE9       29.83R
$$

LSZ147-162-010400-
LAKE SUPERIOR

STATION/POSITION TIME  TEMP    WIND        PRES    WAVE
                       AIR SEA DIR/SP/G            HT/PER
                 (UTC) (F)     (DEG/KT/KT) (MB)    (FT/S)
W MID LAKE BUOY  0250   63 58  140/ 14/ 16 1003.3F   2/ 3
DEVILS ISLAND    0300   67     200/ 11/ 15 1003.0F
PORT WING        0200   65     170/  5     1003.7F
SAXON HARBOR     0240   75     180/  6/ 15 1003.4S
$$

LMZ867-665-643>646-010400-
LAKE MICHIGAN

STATION/POSITION TIME  TEMP    WIND        PRES    WAVE
                       AIR SEA DIR/SP/G            HT/PER
                 (UTC) (F)     (DEG/KT/KT) (MB)    (FT/S)
N MID LAKE BUOY  0250   65 65  140/ 12/ 12 1009.7F   1
NORTHPORT PIER   0200   65     150/ 11/ 14 1010.2F
KEWAUNEE LAKESHO 0300   61     180/  5/  6 1008.8F
SHEBOYGAN LAKESH 0300   65 50  150/  6/  7 1010.0F
ATWATER BUOY     0300   71     160/ 10/ 12 1011.2F
MILWAUKEE LAKESH 0300   70     150/  4/  6   N/A
S MID LAKE BUOY  0250   72 71  150/ 12/ 14 1010.5F   1
KENOSHA   LAKESH 0300   75     190/  7/ 12 1010.5S
$$

TC  - TEMPERATURE IN CELSIUS
VSB - VISIBILITY IN STATUTE MILES
WCI - WIND CHILL INDEX
HX  - HEAT INDEX




USA.gov is the U.S. government's official web portal to all federal, state and local government web resources and services.